Location: Beaufort Park
(39.1418°N, 76.9433°W)
Time: 22:27:58
(UTC+00:00)

Cosmos 1386 Rocket - Pass Details

Date: 29 October 2020
Orbit: 929 x 1006 km, 83.0° (Epoch: 02 December)

Event Time Altitude Azimuth Distance (km) Brightness Sun altitude
Rises 23:31:19 0° 354° (N) 3,740 7.6 -16.3°
Reaches altitude 10° 23:33:53 10° 357° (N) 2,782 6.9 -16.8°
Maximum altitude 23:40:17 74° 82° (E) 1,036 4.4 -18.1°
Drops below altitude 10° 23:46:33 10° 167° (SSE) 2,725 6.7 -19.3°
Sets 23:49:02 0° 169° (S) 3,658 7.4 -19.8°
